Year,Month,Day,Hour,Minute,Value (Times are PST for temperature in C)
2011,07,18,00,00,14.40
2011,07,18,00,01,14.40
2011,07,18,00,02,14.40
2011,07,18,00,03,14.40
2011,07,18,00,04,14.40
2011,07,18,00,05,14.40
2011,07,18,00,06,14.40
2011,07,18,00,07,14.40
2011,07,18,00,08,14.40
2011,07,18,00,09,14.40
2011,07,18,00,10,14.40
2011,07,18,00,11,14.40
2011,07,18,00,12,14.40
2011,07,18,00,13,14.40
2011,07,18,00,14,14.40
2011,07,18,00,15,14.40
2011,07,18,00,16,14.40
2011,07,18,00,17,14.40
2011,07,18,00,18,14.40
2011,07,18,00,19,14.40
2011,07,18,00,20,14.40
2011,07,18,00,21,14.40
2011,07,18,00,22,14.40
2011,07,18,00,23,14.40
2011,07,18,00,24,14.30
2011,07,18,00,25,14.30
2011,07,18,00,26,14.30
2011,07,18,00,27,14.30
2011,07,18,00,28,14.30
2011,07,18,00,29,14.30
2011,07,18,00,30,14.30
2011,07,18,00,31,14.30
2011,07,18,00,32,14.30
2011,07,18,00,33,14.30
2011,07,18,00,34,14.30
2011,07,18,00,35,14.30
2011,07,18,00,36,14.30
2011,07,18,00,37,14.30
2011,07,18,00,38,14.30
2011,07,18,00,39,14.30
2011,07,18,00,40,14.30
2011,07,18,00,41,14.30
2011,07,18,00,42,14.20
2011,07,18,00,43,14.20
2011,07,18,00,44,14.20
2011,07,18,00,45,14.20
2011,07,18,00,46,14.20
2011,07,18,00,47,14.20
2011,07,18,00,48,14.20
2011,07,18,00,49,14.20
2011,07,18,00,50,14.20
2011,07,18,00,51,14.20
2011,07,18,00,52,14.20
2011,07,18,00,53,14.20
2011,07,18,00,54,14.20
2011,07,18,00,55,14.20
2011,07,18,00,56,14.20
2011,07,18,00,57,14.20
2011,07,18,00,58,14.20
2011,07,18,00,59,14.20
2011,07,18,01,00,14.20
2011,07,18,01,01,14.20
2011,07,18,01,02,14.20
2011,07,18,01,03,14.20
2011,07,18,01,04,14.20
2011,07,18,01,05,14.20
2011,07,18,01,06,14.20
2011,07,18,01,07,14.20
2011,07,18,01,08,14.20
2011,07,18,01,09,14.20
2011,07,18,01,10,14.20
2011,07,18,01,11,14.20
2011,07,18,01,12,14.20
2011,07,18,01,13,14.20
2011,07,18,01,14,14.20
2011,07,18,01,15,14.20
2011,07,18,01,16,14.20
2011,07,18,01,17,14.20
2011,07,18,01,18,14.20
2011,07,18,01,19,14.20
2011,07,18,01,20,14.20
2011,07,18,01,21,14.20
2011,07,18,01,22,14.20
2011,07,18,01,23,14.20
2011,07,18,01,24,14.20
2011,07,18,01,25,14.20
2011,07,18,01,26,14.20
2011,07,18,01,27,14.20
2011,07,18,01,28,14.20
2011,07,18,01,29,14.20
2011,07,18,01,30,14.20
2011,07,18,01,31,14.20
2011,07,18,01,32,14.10
2011,07,18,01,33,14.10
2011,07,18,01,34,14.10
2011,07,18,01,35,14.20
2011,07,18,01,36,14.20
2011,07,18,01,37,14.20
2011,07,18,01,38,14.20
2011,07,18,01,39,14.20
2011,07,18,01,40,14.20
2011,07,18,01,41,14.20
2011,07,18,01,42,14.20
2011,07,18,01,43,14.20
2011,07,18,01,44,14.20
2011,07,18,01,45,14.20
2011,07,18,01,46,14.20
2011,07,18,01,47,14.20
2011,07,18,01,48,14.20
2011,07,18,01,49,14.20
2011,07,18,01,50,14.20
2011,07,18,01,51,14.20
2011,07,18,01,52,14.20
2011,07,18,01,53,14.20
2011,07,18,01,54,14.20
2011,07,18,01,55,14.20
2011,07,18,01,56,14.20
2011,07,18,01,57,14.20
2011,07,18,01,58,14.20
2011,07,18,01,59,14.20
2011,07,18,02,00,14.20
2011,07,18,02,01,14.20
2011,07,18,02,02,14.20
2011,07,18,02,03,14.20
2011,07,18,02,04,14.20
2011,07,18,02,05,14.20
2011,07,18,02,06,14.20
2011,07,18,02,07,14.20
2011,07,18,02,08,14.20
2011,07,18,02,09,14.20
2011,07,18,02,10,14.20
2011,07,18,02,11,14.20
2011,07,18,02,12,14.20
2011,07,18,02,13,14.20
2011,07,18,02,14,14.20
2011,07,18,02,15,14.20
2011,07,18,02,16,14.20
2011,07,18,02,17,14.20
2011,07,18,02,18,14.20
2011,07,18,02,19,14.20
2011,07,18,02,20,14.20
2011,07,18,02,21,14.20
2011,07,18,02,22,14.20
2011,07,18,02,23,14.20
2011,07,18,02,24,14.20
2011,07,18,02,25,14.20
2011,07,18,02,26,14.20
2011,07,18,02,27,14.20
2011,07,18,02,28,14.20
2011,07,18,02,29,14.20
2011,07,18,02,30,14.20
2011,07,18,02,31,14.20
2011,07,18,02,32,14.20
2011,07,18,02,33,14.20
2011,07,18,02,34,14.20
2011,07,18,02,35,14.20
2011,07,18,02,36,14.20
2011,07,18,02,37,14.20
2011,07,18,02,38,14.20
2011,07,18,02,39,14.20
2011,07,18,02,40,14.20
2011,07,18,02,41,14.20
2011,07,18,02,42,14.20
2011,07,18,02,43,14.20
2011,07,18,02,44,14.20
2011,07,18,02,45,14.20
2011,07,18,02,46,14.20
2011,07,18,02,47,14.20
2011,07,18,02,48,14.20
2011,07,18,02,49,14.20
2011,07,18,02,50,14.20
2011,07,18,02,51,14.20
2011,07,18,02,52,14.20
2011,07,18,02,53,14.20
2011,07,18,02,54,14.20
2011,07,18,02,55,14.20
2011,07,18,02,56,14.20
2011,07,18,02,57,14.20
2011,07,18,02,58,14.20
2011,07,18,02,59,14.20
2011,07,18,03,00,14.20
2011,07,18,03,01,14.20
2011,07,18,03,02,14.20
2011,07,18,03,03,14.20
2011,07,18,03,04,14.20
2011,07,18,03,05,14.20
2011,07,18,03,06,14.20
2011,07,18,03,07,14.20
2011,07,18,03,08,14.20
2011,07,18,03,09,14.20
2011,07,18,03,10,14.20
2011,07,18,03,11,14.20
2011,07,18,03,12,14.20
2011,07,18,03,13,14.20
2011,07,18,03,14,14.20
2011,07,18,03,15,14.20
2011,07,18,03,16,14.20
2011,07,18,03,17,14.20
2011,07,18,03,18,14.20
2011,07,18,03,19,14.20
2011,07,18,03,20,14.20
2011,07,18,03,21,14.20
2011,07,18,03,22,14.20
2011,07,18,03,23,14.20
2011,07,18,03,24,14.20
2011,07,18,03,25,14.20
2011,07,18,03,26,14.20
2011,07,18,03,27,14.20
2011,07,18,03,28,14.20
2011,07,18,03,29,14.20
2011,07,18,03,30,14.20
2011,07,18,03,31,14.20
2011,07,18,03,32,14.20
2011,07,18,03,33,14.20
2011,07,18,03,34,14.20
2011,07,18,03,35,14.20
2011,07,18,03,36,14.20
2011,07,18,03,37,14.20
2011,07,18,03,38,14.20
2011,07,18,03,39,14.20
2011,07,18,03,40,14.20
2011,07,18,03,41,14.10
2011,07,18,03,42,14.20
2011,07,18,03,43,14.10
2011,07,18,03,44,14.20
2011,07,18,03,45,14.20
2011,07,18,03,46,14.10
2011,07,18,03,47,14.10
2011,07,18,03,49,14.10
2011,07,18,03,50,14.10
2011,07,18,03,51,14.10
2011,07,18,03,52,14.10
2011,07,18,03,53,14.10
2011,07,18,03,54,14.10
2011,07,18,03,55,14.10
2011,07,18,03,56,14.10
2011,07,18,03,57,14.10
2011,07,18,03,58,14.10
2011,07,18,03,59,14.10
2011,07,18,04,00,14.10
2011,07,18,04,01,14.10
2011,07,18,04,02,14.10
2011,07,18,04,03,14.10
2011,07,18,04,04,14.10
2011,07,18,04,05,14.10
2011,07,18,04,06,14.10
2011,07,18,04,07,14.00
2011,07,18,04,08,14.00
2011,07,18,04,09,14.00
2011,07,18,04,10,14.00
2011,07,18,04,11,14.00
2011,07,18,04,12,14.00
2011,07,18,04,13,14.00
2011,07,18,04,14,14.00
2011,07,18,04,15,14.00
2011,07,18,04,16,14.00
2011,07,18,04,17,14.00
2011,07,18,04,18,14.00
2011,07,18,04,19,14.00
2011,07,18,04,20,14.00
2011,07,18,04,21,14.00
2011,07,18,04,22,14.00
2011,07,18,04,23,14.00
2011,07,18,04,24,14.00
2011,07,18,04,25,14.00
2011,07,18,04,26,14.00
2011,07,18,04,27,14.00
2011,07,18,04,28,14.00
2011,07,18,04,29,14.00
2011,07,18,04,30,14.00
2011,07,18,04,31,14.00
2011,07,18,04,32,14.00
2011,07,18,04,33,14.00
2011,07,18,04,34,14.00
2011,07,18,04,35,14.00
2011,07,18,04,36,14.00
2011,07,18,04,37,14.00
2011,07,18,04,38,14.00
2011,07,18,04,39,14.00
2011,07,18,04,40,14.00
2011,07,18,04,41,14.00
2011,07,18,04,42,14.00
2011,07,18,04,43,13.90
2011,07,18,04,44,13.90
2011,07,18,04,45,13.90
2011,07,18,04,46,13.90
2011,07,18,04,47,13.90
2011,07,18,04,48,13.90
2011,07,18,04,49,13.90
2011,07,18,04,50,13.90
2011,07,18,04,51,13.90
2011,07,18,04,52,13.90
2011,07,18,04,53,13.90
2011,07,18,04,54,13.90
2011,07,18,04,55,13.90
2011,07,18,04,56,13.90
2011,07,18,04,57,13.90
2011,07,18,04,58,13.90
2011,07,18,04,59,13.90
2011,07,18,05,00,13.90
2011,07,18,05,01,13.90
2011,07,18,05,02,13.90
2011,07,18,05,03,13.90
2011,07,18,05,04,13.90
2011,07,18,05,05,13.90
2011,07,18,05,06,13.90
2011,07,18,05,07,13.90
2011,07,18,05,08,13.90
2011,07,18,05,09,13.90
2011,07,18,05,10,13.90
2011,07,18,05,11,13.80
2011,07,18,05,12,13.80
2011,07,18,05,13,13.80
2011,07,18,05,14,13.80
2011,07,18,05,15,13.80
2011,07,18,05,16,13.80
2011,07,18,05,17,13.80
2011,07,18,05,18,13.80
2011,07,18,05,19,13.80
2011,07,18,05,20,13.80
2011,07,18,05,21,13.80
2011,07,18,05,22,13.80
2011,07,18,05,23,13.80
2011,07,18,05,24,13.80
2011,07,18,05,25,13.80
2011,07,18,05,26,13.80
2011,07,18,05,27,13.80
2011,07,18,05,28,13.80
2011,07,18,05,29,13.80
2011,07,18,05,30,13.80
2011,07,18,05,31,13.80
2011,07,18,05,32,13.80
2011,07,18,05,33,13.80
2011,07,18,05,34,13.80
2011,07,18,05,35,13.80
2011,07,18,05,36,13.80
2011,07,18,05,37,13.80
2011,07,18,05,38,13.80
2011,07,18,05,39,13.80
2011,07,18,05,40,13.80
2011,07,18,05,41,13.80
2011,07,18,05,42,13.80
2011,07,18,05,43,13.80
2011,07,18,05,44,13.80
2011,07,18,05,45,13.80
2011,07,18,05,46,13.80
2011,07,18,05,47,13.80
2011,07,18,05,48,13.80
2011,07,18,05,49,13.80
2011,07,18,05,50,13.80
2011,07,18,05,51,13.80
2011,07,18,05,52,13.80
2011,07,18,05,53,13.80
2011,07,18,05,54,13.80
2011,07,18,05,55,13.80
2011,07,18,05,56,13.80
2011,07,18,05,57,13.80
2011,07,18,05,58,13.80
2011,07,18,05,59,13.80
2011,07,18,06,00,13.80
2011,07,18,06,01,13.80
2011,07,18,06,02,13.80
2011,07,18,06,03,13.80
2011,07,18,06,04,13.80
2011,07,18,06,05,13.80
2011,07,18,06,06,13.80
2011,07,18,06,07,13.80
2011,07,18,06,08,13.80
2011,07,18,06,09,13.80
2011,07,18,06,10,13.80
2011,07,18,06,11,13.80
2011,07,18,06,12,13.80
2011,07,18,06,13,13.80
2011,07,18,06,14,13.80
2011,07,18,06,15,13.80
2011,07,18,06,16,13.80
2011,07,18,06,17,13.80
2011,07,18,06,18,13.80
2011,07,18,06,19,13.80
2011,07,18,06,20,13.80
2011,07,18,06,21,13.80
2011,07,18,06,22,13.80
2011,07,18,06,23,13.80
2011,07,18,06,24,13.80
2011,07,18,06,25,13.80
2011,07,18,06,26,13.80
2011,07,18,06,27,13.80
2011,07,18,06,28,13.80
2011,07,18,06,29,13.80
2011,07,18,06,30,13.80
2011,07,18,06,31,13.80
2011,07,18,06,32,13.80
2011,07,18,06,33,13.80
2011,07,18,06,34,13.80
2011,07,18,06,35,13.80
2011,07,18,06,36,13.80
2011,07,18,06,37,13.80
2011,07,18,06,38,13.80
2011,07,18,06,39,13.80
2011,07,18,06,40,13.80
2011,07,18,06,41,13.80
2011,07,18,06,42,13.80
2011,07,18,06,43,13.80
2011,07,18,06,44,13.80
2011,07,18,06,49,13.90
2011,07,18,06,50,13.90
2011,07,18,06,51,13.90
2011,07,18,06,52,13.80
2011,07,18,06,53,13.90
2011,07,18,06,54,13.90
2011,07,18,06,55,13.90
2011,07,18,06,56,13.90
2011,07,18,06,57,13.90
2011,07,18,06,58,13.90
2011,07,18,06,59,13.90
2011,07,18,07,00,13.90
2011,07,18,07,01,13.90
2011,07,18,07,02,13.90
2011,07,18,07,03,13.90
2011,07,18,07,04,13.90
2011,07,18,07,05,13.90
2011,07,18,07,06,13.90
2011,07,18,07,07,13.90
2011,07,18,07,08,13.90
2011,07,18,07,09,13.90
2011,07,18,07,10,14.00
2011,07,18,07,11,14.00
2011,07,18,07,12,14.00
2011,07,18,07,13,14.00
2011,07,18,07,14,14.00
2011,07,18,07,15,14.00
2011,07,18,07,16,14.00
2011,07,18,07,17,14.10
2011,07,18,07,18,14.10
2011,07,18,07,19,14.10
2011,07,18,07,20,14.10
2011,07,18,07,21,14.10
2011,07,18,07,22,14.10
2011,07,18,07,23,14.10
2011,07,18,07,24,14.10
2011,07,18,07,25,14.10
2011,07,18,07,26,14.10
2011,07,18,07,27,14.10
2011,07,18,07,28,14.10
2011,07,18,07,29,14.10
2011,07,18,07,30,14.20
2011,07,18,07,31,14.20
2011,07,18,07,32,14.20
2011,07,18,07,33,14.20
2011,07,18,07,34,14.20
2011,07,18,07,35,14.20
2011,07,18,07,36,14.20
2011,07,18,07,37,14.20
2011,07,18,07,38,14.20
2011,07,18,07,39,14.20
2011,07,18,07,40,14.20
2011,07,18,07,41,14.20
2011,07,18,07,42,14.30
2011,07,18,07,43,14.30
2011,07,18,07,44,14.30
2011,07,18,07,45,14.30
2011,07,18,07,46,14.30
2011,07,18,07,47,14.30
2011,07,18,07,48,14.30
2011,07,18,07,49,14.30
2011,07,18,07,50,14.30
2011,07,18,07,51,14.30
2011,07,18,07,52,14.40
2011,07,18,07,53,14.40
2011,07,18,07,54,14.40
2011,07,18,07,55,14.40
2011,07,18,07,56,14.40
2011,07,18,07,57,14.40
2011,07,18,07,58,14.50
2011,07,18,08,01,14.60
2011,07,18,08,02,14.60
2011,07,18,08,03,14.60
2011,07,18,08,04,14.60
2011,07,18,08,05,14.60
2011,07,18,08,06,14.70
2011,07,18,08,07,14.70
2011,07,18,08,08,14.70
2011,07,18,08,10,14.70
2011,07,18,08,11,14.70
2011,07,18,08,12,14.70
2011,07,18,08,13,14.70
2011,07,18,08,14,14.70
2011,07,18,08,15,14.70
2011,07,18,08,16,14.70
2011,07,18,08,17,14.80
2011,07,18,08,18,14.80
2011,07,18,08,19,14.80
2011,07,18,08,20,14.80
2011,07,18,08,21,14.80
2011,07,18,08,22,14.80
2011,07,18,08,23,14.80
2011,07,18,08,24,14.80
2011,07,18,08,25,14.80
2011,07,18,08,26,14.80
2011,07,18,08,27,14.80
2011,07,18,08,28,14.90
2011,07,18,08,29,14.90
2011,07,18,08,30,14.90
2011,07,18,08,31,14.90
2011,07,18,08,32,15.00
2011,07,18,08,33,14.90
2011,07,18,08,34,15.00
2011,07,18,08,35,15.00
2011,07,18,08,36,15.00
2011,07,18,08,37,15.00
2011,07,18,08,38,15.00
2011,07,18,08,39,15.00
2011,07,18,08,40,15.00
2011,07,18,08,41,15.00
2011,07,18,08,42,15.00
2011,07,18,08,43,15.00
2011,07,18,08,44,15.00
2011,07,18,08,45,15.00
2011,07,18,08,46,15.00
2011,07,18,08,47,15.00
2011,07,18,08,48,15.00
2011,07,18,08,49,15.00
2011,07,18,08,50,15.10
2011,07,18,08,51,15.10
2011,07,18,08,52,15.10
2011,07,18,08,53,15.10
2011,07,18,08,54,15.10
2011,07,18,08,55,15.10
2011,07,18,08,56,15.10
2011,07,18,08,57,15.20
2011,07,18,08,58,15.20
2011,07,18,08,59,15.20
2011,07,18,09,00,15.30
2011,07,18,09,01,15.30
2011,07,18,09,02,15.30
2011,07,18,09,03,15.40
2011,07,18,09,04,15.40
2011,07,18,09,05,15.50
2011,07,18,09,06,15.50
2011,07,18,09,07,15.60
2011,07,18,09,08,15.60
2011,07,18,09,09,15.70
2011,07,18,09,10,15.70
2011,07,18,09,11,15.70
2011,07,18,09,12,15.80
2011,07,18,09,13,15.80
2011,07,18,09,14,15.90
2011,07,18,09,15,15.90
2011,07,18,09,16,16.00
2011,07,18,09,17,16.00
2011,07,18,09,18,16.10
2011,07,18,09,19,16.10
2011,07,18,09,20,16.00
2011,07,18,09,21,16.00
2011,07,18,09,22,15.90
2011,07,18,09,23,15.90
2011,07,18,09,24,15.90
2011,07,18,09,25,15.90
2011,07,18,09,26,15.90
2011,07,18,09,27,15.90
2011,07,18,09,28,15.90
2011,07,18,09,29,15.90
2011,07,18,09,30,16.00
2011,07,18,09,31,16.00
2011,07,18,09,32,16.00
2011,07,18,09,33,16.10
2011,07,18,11,45,18.90
2011,07,18,11,49,19.30
2011,07,18,11,50,19.40
2011,07,18,11,51,19.50
2011,07,18,11,52,19.60
2011,07,18,11,53,19.60
2011,07,18,11,54,19.70
2011,07,18,11,55,19.70
2011,07,18,11,56,19.80
2011,07,18,11,57,19.80
2011,07,18,11,58,19.80
2011,07,18,11,59,19.80
2011,07,18,12,00,19.90
2011,07,18,12,01,19.90
2011,07,18,12,02,19.90
2011,07,18,12,03,19.90
2011,07,18,12,04,19.90
2011,07,18,12,05,19.90
2011,07,18,12,06,19.90
2011,07,18,12,07,19.90
2011,07,18,12,08,19.90
2011,07,18,12,09,19.90
2011,07,18,12,10,19.90
2011,07,18,12,11,19.80
2011,07,18,12,12,19.80
2011,07,18,12,13,19.80
2011,07,18,12,14,19.90
2011,07,18,12,15,19.90
2011,07,18,12,16,19.90
2011,07,18,12,17,19.80
2011,07,18,12,18,19.80
2011,07,18,12,19,19.90
2011,07,18,12,20,19.90
2011,07,18,12,21,19.90
2011,07,18,12,22,19.90
2011,07,18,12,23,20.00
2011,07,18,12,24,20.10
2011,07,18,12,25,20.10
2011,07,18,12,26,20.20
2011,07,18,12,27,20.20
2011,07,18,12,28,20.30
2011,07,18,12,29,20.40
2011,07,18,12,30,20.60
2011,07,18,12,31,20.70
2011,07,18,12,32,20.80
2011,07,18,12,33,20.80
2011,07,18,12,34,20.80
2011,07,18,12,35,20.90
2011,07,18,12,36,21.10
2011,07,18,12,37,21.20
2011,07,18,12,38,21.30
2011,07,18,12,39,21.40
2011,07,18,12,40,21.50
2011,07,18,12,41,21.60
2011,07,18,12,42,21.60
2011,07,18,12,43,21.60
2011,07,18,12,44,21.50
2011,07,18,12,45,21.50
2011,07,18,12,46,21.60
2011,07,18,12,47,21.60
2011,07,18,12,48,21.70
2011,07,18,12,49,21.70
2011,07,18,12,50,21.60
2011,07,18,12,51,21.60
2011,07,18,12,52,21.60
2011,07,18,12,53,21.60
2011,07,18,12,54,21.60
2011,07,18,12,55,21.70
2011,07,18,12,56,21.70
2011,07,18,12,57,21.70
2011,07,18,12,58,21.80
2011,07,18,12,59,21.80
2011,07,18,13,00,21.70
2011,07,18,13,02,21.70
2011,07,18,13,03,21.60
2011,07,18,13,04,21.50
2011,07,18,13,05,21.40
2011,07,18,13,06,21.30
2011,07,18,13,07,21.30
2011,07,18,13,08,21.30
2011,07,18,13,09,21.30
2011,07,18,13,10,21.30
2011,07,18,13,11,21.30
2011,07,18,13,12,21.30
2011,07,18,13,13,21.30
2011,07,18,13,14,21.20
2011,07,18,13,15,21.20
2011,07,18,13,16,21.30
2011,07,18,13,17,21.30
2011,07,18,13,18,21.30
2011,07,18,13,19,21.30
2011,07,18,13,20,21.30
2011,07,18,13,21,21.40
2011,07,18,13,22,21.40
2011,07,18,13,23,21.40
2011,07,18,13,24,21.40
2011,07,18,13,25,21.40
2011,07,18,13,26,21.40
2011,07,18,13,27,21.40
2011,07,18,13,28,21.40
2011,07,18,13,29,21.40
2011,07,18,13,30,21.50
2011,07,18,13,31,21.50
2011,07,18,13,32,21.50
2011,07,18,13,33,21.50
2011,07,18,13,34,21.50
2011,07,18,13,35,21.40
2011,07,18,13,36,21.40
2011,07,18,13,37,21.40
2011,07,18,13,38,21.40
2011,07,18,13,39,21.40
2011,07,18,13,40,21.30
2011,07,18,13,41,21.30
2011,07,18,13,42,21.30
2011,07,18,13,43,21.30
2011,07,18,13,44,21.30
2011,07,18,13,45,21.30
2011,07,18,13,46,21.30
2011,07,18,13,47,21.20
2011,07,18,13,48,21.20
2011,07,18,13,49,21.20
2011,07,18,13,50,21.20
2011,07,18,13,51,21.20
2011,07,18,13,52,21.20
2011,07,18,13,53,21.20
2011,07,18,13,54,21.20
2011,07,18,13,55,21.20
2011,07,18,13,56,21.20
2011,07,18,13,57,21.20
2011,07,18,13,58,21.20
2011,07,18,13,59,21.30
2011,07,18,14,00,21.30
2011,07,18,14,01,21.30
2011,07,18,14,02,21.30
2011,07,18,14,03,21.30
2011,07,18,14,04,21.30
2011,07,18,14,05,21.30
2011,07,18,14,06,21.40
2011,07,18,14,07,21.40
2011,07,18,14,08,21.50
2011,07,18,14,09,21.60
2011,07,18,14,10,21.60
2011,07,18,14,11,21.60
2011,07,18,14,12,21.60
2011,07,18,14,13,21.70
2011,07,18,14,14,21.70
2011,07,18,14,15,21.80
2011,07,18,14,16,21.80
2011,07,18,14,17,21.90
2011,07,18,14,18,22.00
2011,07,18,14,19,22.10
2011,07,18,14,20,22.10
2011,07,18,14,21,22.20
2011,07,18,14,22,22.20
2011,07,18,14,23,22.30
2011,07,18,14,24,22.30
2011,07,18,14,25,22.40
2011,07,18,14,26,22.40
2011,07,18,14,27,22.40
2011,07,18,14,28,22.40
2011,07,18,14,29,22.50
2011,07,18,14,30,22.50
2011,07,18,14,31,22.60
2011,07,18,14,32,22.60
2011,07,18,14,34,22.60
2011,07,18,14,35,22.60
2011,07,18,14,36,22.60
2011,07,18,14,37,22.60
2011,07,18,14,38,22.60
2011,07,18,14,39,22.60
2011,07,18,14,40,22.50
2011,07,18,14,41,22.50
2011,07,18,14,42,22.50
2011,07,18,14,43,22.40
2011,07,18,14,44,22.40
2011,07,18,14,45,22.40
2011,07,18,14,46,22.40
2011,07,18,14,47,22.40
2011,07,18,14,48,22.40
2011,07,18,14,49,22.30
2011,07,18,14,50,22.30
2011,07,18,14,51,22.30
2011,07,18,14,52,22.30
2011,07,18,14,53,22.30
2011,07,18,14,54,22.30
2011,07,18,14,55,22.30
2011,07,18,14,56,22.20
2011,07,18,14,57,22.20
2011,07,18,14,58,22.20
2011,07,18,14,59,22.20
2011,07,18,15,00,22.20
2011,07,18,15,01,22.20
2011,07,18,15,02,22.20
2011,07,18,15,03,22.20
2011,07,18,15,04,22.10
2011,07,18,15,05,22.10
2011,07,18,15,06,22.10
2011,07,18,15,07,22.10
2011,07,18,15,08,22.10
2011,07,18,15,09,22.10
2011,07,18,15,10,22.10
2011,07,18,15,11,22.10
2011,07,18,15,12,22.10
2011,07,18,15,13,22.10
2011,07,18,15,14,22.10
2011,07,18,15,15,22.00
2011,07,18,15,16,22.00
2011,07,18,15,17,21.90
2011,07,18,15,18,21.90
2011,07,18,15,19,21.80
2011,07,18,15,20,21.80
2011,07,18,15,21,21.80
2011,07,18,15,22,21.80
2011,07,18,15,23,21.80
2011,07,18,15,24,21.80
2011,07,18,15,25,21.80
2011,07,18,15,26,21.80
2011,07,18,15,27,21.80
2011,07,18,15,28,21.80
2011,07,18,15,29,21.90
2011,07,18,15,30,21.90
2011,07,18,15,31,21.90
2011,07,18,15,32,21.90
2011,07,18,15,33,22.00
2011,07,18,15,34,22.00
2011,07,18,15,35,22.00
2011,07,18,15,36,22.00
2011,07,18,15,37,22.10
2011,07,18,15,38,22.10
2011,07,18,15,39,22.20
2011,07,18,15,40,22.20
2011,07,18,15,41,22.30
2011,07,18,15,42,22.40
2011,07,18,15,43,22.50
2011,07,18,15,44,22.60
2011,07,18,15,45,22.60
2011,07,18,15,46,22.60
2011,07,18,21,29,18.10
2011,07,18,21,30,18.10
2011,07,18,21,31,18.10
2011,07,18,21,32,18.10
2011,07,18,21,33,18.10
2011,07,18,21,34,18.10
2011,07,18,21,35,18.10
2011,07,18,21,36,18.10
2011,07,18,21,37,18.10
2011,07,18,21,38,18.00
2011,07,18,21,39,18.00
2011,07,18,21,40,17.90
2011,07,18,21,41,17.90
2011,07,18,21,42,17.90
2011,07,18,21,43,17.90
2011,07,18,21,44,17.80
2011,07,18,21,45,17.80
2011,07,18,21,46,17.80
2011,07,18,21,47,17.80
2011,07,18,21,48,17.70
2011,07,18,21,49,17.70
2011,07,18,21,50,17.70
2011,07,18,21,51,17.70
2011,07,18,21,52,17.70
2011,07,18,21,53,17.70
2011,07,18,21,54,17.70
2011,07,18,21,55,17.60
2011,07,18,21,56,17.60
2011,07,18,21,57,17.60
2011,07,18,21,58,17.60
2011,07,18,21,59,17.60
2011,07,18,22,00,17.60
2011,07,18,22,01,17.60
2011,07,18,22,02,17.60
2011,07,18,22,03,17.50
2011,07,18,22,04,17.50
2011,07,18,22,05,17.40
2011,07,18,22,06,17.40
2011,07,18,22,07,17.40
2011,07,18,22,08,17.40
2011,07,18,22,09,17.40
2011,07,18,22,10,17.40
2011,07,18,22,11,17.40
2011,07,18,22,12,17.30
2011,07,18,22,13,17.30
2011,07,18,22,14,17.30
2011,07,18,22,15,17.30
2011,07,18,22,16,17.30
2011,07,18,22,17,17.30
2011,07,18,22,18,17.30
2011,07,18,22,19,17.30
2011,07,18,22,20,17.30
2011,07,18,22,21,17.30
2011,07,18,22,22,17.30
2011,07,18,22,23,17.30
2011,07,18,22,24,17.30
2011,07,18,22,25,17.20
2011,07,18,22,26,17.20
2011,07,18,22,27,17.20
2011,07,18,22,28,17.20
2011,07,18,22,29,17.20
2011,07,18,22,30,17.20
2011,07,18,22,31,17.20
2011,07,18,22,32,17.20
2011,07,18,22,33,17.20
2011,07,18,22,34,17.20
2011,07,18,22,35,17.20
2011,07,18,22,36,17.20
2011,07,18,22,37,17.20
2011,07,18,22,38,17.20
2011,07,18,22,39,17.20
2011,07,18,22,40,17.20
2011,07,18,22,41,17.20
2011,07,18,22,42,17.10
2011,07,18,22,43,17.10
2011,07,18,22,44,17.10
2011,07,18,22,45,17.10
2011,07,18,22,46,17.10
2011,07,18,22,47,17.10
2011,07,18,22,48,17.10
2011,07,18,22,49,17.10
2011,07,18,22,50,17.10
2011,07,18,22,51,17.10
2011,07,18,22,52,17.10
2011,07,18,22,53,17.00
2011,07,18,22,54,17.00
2011,07,18,22,55,17.00
2011,07,18,22,56,17.00
2011,07,18,22,57,17.00
2011,07,18,22,58,17.00
2011,07,18,22,59,16.90
2011,07,18,23,00,16.90
2011,07,18,23,01,16.90
2011,07,18,23,02,16.90
2011,07,18,23,03,16.90
2011,07,18,23,04,16.90
2011,07,18,23,05,16.90
2011,07,18,23,06,16.80
2011,07,18,23,07,16.80
2011,07,18,23,08,16.80
2011,07,18,23,09,16.80
2011,07,18,23,10,16.70
2011,07,18,23,11,16.70
2011,07,18,23,12,16.70
2011,07,18,23,13,16.70
2011,07,18,23,14,16.60
2011,07,18,23,15,16.60
2011,07,18,23,16,16.60
2011,07,18,23,17,16.60
2011,07,18,23,18,16.50
2011,07,18,23,19,16.50
2011,07,18,23,20,16.50
2011,07,18,23,21,16.50
2011,07,18,23,22,16.40
2011,07,18,23,23,16.40
2011,07,18,23,24,16.40
2011,07,18,23,25,16.40
2011,07,18,23,26,16.40
2011,07,18,23,27,16.40
2011,07,18,23,28,16.40
2011,07,18,23,29,16.40
2011,07,18,23,30,16.40
2011,07,18,23,31,16.30
2011,07,18,23,32,16.30
2011,07,18,23,33,16.30
2011,07,18,23,34,16.30
2011,07,18,23,35,16.30
2011,07,18,23,36,16.20
2011,07,18,23,37,16.20
2011,07,18,23,38,16.20
2011,07,18,23,39,16.10
2011,07,18,23,40,16.10
2011,07,18,23,41,16.10
2011,07,18,23,42,16.10
2011,07,18,23,43,16.00
2011,07,18,23,44,16.00
2011,07,18,23,45,16.00
2011,07,18,23,46,15.90
2011,07,18,23,47,15.90
2011,07,18,23,48,15.90
2011,07,18,23,49,15.90
2011,07,18,23,50,15.90
2011,07,18,23,51,15.80
2011,07,18,23,52,15.80
2011,07,18,23,53,15.80
2011,07,18,23,54,15.80
2011,07,18,23,55,15.80
2011,07,18,23,56,15.80
2011,07,18,23,57,15.70
2011,07,18,23,58,15.70
2011,07,18,23,59,15.70
